COSMOS 1933

Last updated on Sun Sep 20 2026 00:02:08 GMT+0000 (Coordinated Universal Time)

1 18958U 88020A 26261.71248072 .00003089 00000+0 14526-3 0 9997 2 18958 82.5113 59.7618 0002734 237.2405 122.8566 15.19222616 79526
UTC large
Height (km)
Speed (km/s)
/
Latitude / Longitude
Inclination (degrees)
Orbital Period (minutes)
Azimuth
Elevation
Range (km)
Doppler Factor

Next 0 passes for location: London (51.5072 / 0.1276)

No passes found over London.
COSMOS 1933